ES'HAIL 2

Last updated on Tue Oct 28 2025 00:02:50 GMT+0000 (Coordinated Universal Time)

1 43700U 18090A 25300.12149642 .00000156 00000+0 00000+0 0 9991 2 43700 0.0213 118.9319 0001996 135.6013 210.7612 1.00274319 25348
UTC large
Height (km)
Speed (km/s)
/
Latitude / Longitude
Inclination (degrees)
Orbital Period (minutes)
Azimuth
Elevation
Range (km)
Doppler Factor

Next 0 passes for location: London (51.5072 / 0.1276)

Sorry there are no passes over London.